TimeCST,TemperatureF,Dew PointF,Humidity,Sea Level PressureIn,VisibilityMPH,Wind Direction,Wind SpeedMPH,Gust SpeedMPH,PrecipitationIn,Events,Conditions,WindDirDegrees,DateUTC
12:15 AM,50.0,50.0,100,29.88,2.0,North,6.9,-,N/A,,Overcast,360,2012-12-08 06:15:00
12:35 AM,48.2,48.2,100,29.88,2.5,North,6.9,-,N/A,,Overcast,360,2012-12-08 06:35:00
12:55 AM,48.2,48.2,100,29.88,2.0,North,8.1,-,N/A,,Overcast,360,2012-12-08 06:55:00
1:15 AM,46.4,46.4,100,29.87,2.5,North,8.1,-,N/A,,Overcast,10,2012-12-08 07:15:00
1:35 AM,46.4,46.4,100,29.88,2.0,North,4.6,-,N/A,,Overcast,360,2012-12-08 07:35:00
1:55 AM,46.4,46.4,100,29.87,1.0,NNE,8.1,-,N/A,,Overcast,30,2012-12-08 07:55:00
2:15 AM,46.4,46.4,100,29.88,0.5,NNE,6.9,-,N/A,Fog,Fog,30,2012-12-08 08:15:00
2:35 AM,46.4,46.4,100,29.89,2.5,NE,5.8,-,N/A,,Overcast,50,2012-12-08 08:35:00
2:55 AM,46.4,46.4,100,29.89,2.5,NE,4.6,-,N/A,,Overcast,50,2012-12-08 08:55:00
3:15 AM,46.4,46.4,100,29.89,2.0,NE,4.6,-,N/A,,Overcast,50,2012-12-08 09:15:00
3:35 AM,46.4,46.4,100,29.89,2.5,North,4.6,-,N/A,,Overcast,360,2012-12-08 09:35:00
3:55 AM,46.4,46.4,100,29.89,4.0,NNE,4.6,-,N/A,,Overcast,30,2012-12-08 09:55:00
4:15 AM,46.4,46.4,100,29.89,3.0,North,5.8,-,N/A,,Overcast,360,2012-12-08 10:15:00
4:35 AM,46.4,46.4,100,29.90,3.0,North,6.9,-,N/A,,Overcast,360,2012-12-08 10:35:00
4:55 AM,46.4,46.4,100,29.89,2.5,North,5.8,-,N/A,,Overcast,10,2012-12-08 10:55:00
5:15 AM,46.4,46.4,100,29.90,2.5,North,6.9,-,N/A,,Overcast,10,2012-12-08 11:15:00
5:35 AM,46.4,44.6,93,29.91,2.5,NNE,8.1,-,N/A,,Overcast,20,2012-12-08 11:35:00
5:55 AM,46.4,44.6,93,29.91,1.8,North,4.6,-,N/A,,Overcast,360,2012-12-08 11:55:00
6:15 AM,46.4,44.6,93,29.92,0.8,North,8.1,-,N/A,,Overcast,360,2012-12-08 12:15:00
6:35 AM,44.6,44.6,100,29.92,0.2,North,6.9,-,N/A,Fog,Fog,10,2012-12-08 12:35:00
6:55 AM,44.6,44.6,100,29.92,0.5,NNE,6.9,-,N/A,Fog,Fog,30,2012-12-08 12:55:00
7:15 AM,44.6,44.6,100,29.93,2.0,NNE,5.8,-,N/A,,Overcast,30,2012-12-08 13:15:00
7:35 AM,44.6,44.6,100,29.93,1.5,NNE,4.6,-,N/A,,Overcast,30,2012-12-08 13:35:00
7:55 AM,44.6,44.6,100,29.93,1.8,NE,5.8,-,N/A,,Overcast,40,2012-12-08 13:55:00
8:15 AM,44.6,44.6,100,29.93,1.8,ENE,5.8,-,N/A,,Overcast,60,2012-12-08 14:15:00
8:35 AM,44.6,44.6,100,29.93,2.5,NE,8.1,-,N/A,,Overcast,50,2012-12-08 14:35:00
8:55 AM,44.6,44.6,100,29.93,2.5,NNE,6.9,-,N/A,,Overcast,30,2012-12-08 14:55:00
9:15 AM,46.4,44.6,93,29.93,3.0,ENE,8.1,-,N/A,,Overcast,60,2012-12-08 15:15:00
9:35 AM,44.6,44.6,100,29.94,3.0,ENE,4.6,-,N/A,,Overcast,60,2012-12-08 15:35:00
9:55 AM,44.6,44.6,100,29.94,3.0,ENE,8.1,-,N/A,,Overcast,60,2012-12-08 15:55:00
10:15 AM,46.4,44.6,93,29.93,3.0,ENE,4.6,-,N/A,,Overcast,60,2012-12-08 16:15:00
10:35 AM,46.4,44.6,93,29.93,4.0,ENE,6.9,-,N/A,,Overcast,60,2012-12-08 16:35:00
10:55 AM,46.4,44.6,93,29.93,3.0,East,4.6,-,N/A,,Overcast,80,2012-12-08 16:55:00
11:15 AM,46.4,44.6,93,29.91,3.0,ENE,6.9,-,N/A,,Overcast,70,2012-12-08 17:15:00
11:35 AM,46.4,44.6,93,29.92,3.0,East,4.6,-,N/A,,Overcast,80,2012-12-08 17:35:00
11:55 AM,46.4,44.6,93,29.91,3.0,East,3.5,-,N/A,,Overcast,90,2012-12-08 17:55:00
12:15 PM,48.2,44.6,87,29.90,4.0,East,3.5,-,N/A,,Overcast,100,2012-12-08 18:15:00
12:35 PM,48.2,44.6,87,29.89,3.0,East,3.5,-,N/A,,Overcast,80,2012-12-08 18:35:00
12:55 PM,48.2,44.6,87,29.88,5.0,East,6.9,-,N/A,,Overcast,80,2012-12-08 18:55:00
1:15 PM,48.2,46.4,93,29.87,4.0,East,5.8,-,N/A,,Overcast,90,2012-12-08 19:15:00
1:35 PM,50.0,46.4,87,29.87,5.0,East,6.9,-,N/A,,Overcast,100,2012-12-08 19:35:00
1:55 PM,50.0,46.4,87,29.86,5.0,East,5.8,-,N/A,,Overcast,80,2012-12-08 19:55:00
2:15 PM,50.0,46.4,87,29.85,5.0,East,5.8,-,N/A,,Overcast,90,2012-12-08 20:15:00
2:35 PM,50.0,46.4,87,29.84,5.0,ENE,5.8,-,N/A,,Overcast,60,2012-12-08 20:35:00
2:55 PM,50.0,46.4,87,29.84,5.0,ENE,8.1,-,N/A,,Overcast,60,2012-12-08 20:55:00
3:15 PM,50.0,46.4,87,29.84,5.0,NE,4.6,-,N/A,,Overcast,50,2012-12-08 21:15:00
3:35 PM,48.2,46.4,93,29.84,3.0,NNE,6.9,-,N/A,,Overcast,30,2012-12-08 21:35:00
3:55 PM,48.2,46.4,93,29.83,3.0,NE,6.9,-,N/A,,Overcast,40,2012-12-08 21:55:00
4:15 PM,48.2,46.4,93,29.83,3.0,NE,9.2,-,N/A,,Overcast,40,2012-12-08 22:15:00
4:35 PM,48.2,46.4,93,29.84,3.0,NNE,6.9,-,N/A,,Overcast,30,2012-12-08 22:35:00
4:55 PM,46.4,46.4,100,29.83,4.0,NE,5.8,-,N/A,,Overcast,50,2012-12-08 22:55:00
5:15 PM,46.4,46.4,100,29.83,5.0,NE,4.6,-,N/A,,Overcast,40,2012-12-08 23:15:00
5:35 PM,46.4,46.4,100,29.82,5.0,NE,3.5,-,N/A,,Overcast,50,2012-12-08 23:35:00
5:55 PM,48.2,46.4,93,29.83,5.0,Calm,Calm,-,N/A,,Overcast,0,2012-12-08 23:55:00
6:15 PM,48.2,46.4,93,29.84,5.0,NE,4.6,-,N/A,,Overcast,50,2012-12-09 00:15:00
6:35 PM,46.4,44.6,93,29.83,4.0,NE,4.6,-,N/A,,Overcast,50,2012-12-09 00:35:00
6:55 PM,46.4,44.6,93,29.83,4.0,NE,4.6,-,N/A,,Overcast,40,2012-12-09 00:55:00
7:35 PM,46.4,44.6,93,29.83,4.0,East,6.9,-,N/A,,Mostly Cloudy,80,2012-12-09 01:35:00
8:15 PM,46.4,44.6,93,29.82,5.0,ESE,8.1,-,N/A,,Mostly Cloudy,110,2012-12-09 02:15:00
8:35 PM,50.0,46.4,87,29.81,7.0,ESE,9.2,-,N/A,,Overcast,110,2012-12-09 02:35:00
8:55 PM,50.0,48.2,94,29.81,7.0,SE,10.4,-,N/A,,Overcast,130,2012-12-09 02:55:00
9:15 PM,51.8,50.0,94,29.82,7.0,SE,8.1,-,N/A,,Overcast,140,2012-12-09 03:15:00
9:55 PM,51.8,50.0,94,29.82,5.0,SE,6.9,-,N/A,,Overcast,140,2012-12-09 03:55:00
10:35 PM,51.8,50.0,94,29.82,5.0,SE,6.9,-,N/A,,Overcast,130,2012-12-09 04:35:00
10:55 PM,50.0,50.0,100,29.82,5.0,SE,6.9,-,N/A,,Overcast,130,2012-12-09 04:55:00
11:15 PM,51.8,50.0,94,29.82,5.0,SE,4.6,-,N/A,,Overcast,140,2012-12-09 05:15:00
11:35 PM,51.8,50.0,94,29.82,5.0,Calm,Calm,-,N/A,,Overcast,0,2012-12-09 05:35:00
11:55 PM,51.8,50.0,94,29.81,5.0,Calm,Calm,-,N/A,,Overcast,0,2012-12-09 05:55:00